• In Belgien
  • Länderverzeichnis
  • Für 7 Tage
  • Wassertemperatur
  • Satellitenkarten
  • Wetterkarte
  • Widgets
  • user-avatar
    Anmelden

    Stündliche Wetter Pritykino

    Heute, 20 Mai, Sonntag

    Zeit Temperatur Niederschläge Wind Luftdruck Luftfeuchtigkeit
    00:00 +10°C° 0,6 mm 3 m/S 749 mmHg 94%
    01:00 +9°C° 0,6 mm 3 m/S 750 mmHg 94%
    02:00 +9°C° 0 mm 3 m/S 750 mmHg 94%
    03:00 +8°C° 0,3 mm 3 m/S 750 mmHg 94%
    04:00 +8°C° 0,3 mm 3 m/S 751 mmHg 93%
    05:00 +7°C° 0,3 mm 4 m/S 751 mmHg 92%
    06:00 +7°C° 0,2 mm 4 m/S 752 mmHg 90%
    07:00 +8°C° 0,2 mm 3 m/S 752 mmHg 87%
    08:00 +9°C° 0 mm 3 m/S 753 mmHg 87%
    09:00 +9°C° 0,1 mm 3 m/S 753 mmHg 82%
    10:00 +10°C° 0,1 mm 3 m/S 754 mmHg 78%
    11:00 +11°C° 0,1 mm 3 m/S 754 mmHg 73%
    12:00 +12°C° 0 mm 3 m/S 754 mmHg 67%
    13:00 +13°C° 0 mm 3 m/S 755 mmHg 61%
    14:00 +14°C° 0 mm 3 m/S 755 mmHg 55%
    15:00 +14°C° 0 mm 3 m/S 755 mmHg 54%
    16:00 +14°C° 0 mm 3 m/S 755 mmHg 53%
    17:00 +14°C° 0 mm 3 m/S 755 mmHg 52%
    18:00 +12°C° 0 mm 3 m/S 756 mmHg 57%
    19:00 +10°C° 0 mm 2 m/S 756 mmHg 63%
    20:00 +9°C° 0 mm 2 m/S 757 mmHg 68%
    21:00 +8°C° 0 mm 2 m/S 757 mmHg 68%
    22:00 +7°C° 0 mm 2 m/S 758 mmHg 68%
    23:00 +8°C° 0 mm 1 m/S 758 mmHg 68%

    Morgen, 21 Mai, Montag

    Zeit Temperatur Niederschläge Wind Luftdruck Luftfeuchtigkeit
    00:00 +7°C° 0 mm 1 m/S 758 mmHg 68%
    01:00 +7°C° 0 mm 1 m/S 759 mmHg 69%
    02:00 +7°C° 0 mm 1 m/S 759 mmHg 69%
    03:00 +7°C° 0 mm 1 m/S 759 mmHg 69%
    04:00 +8°C° 0 mm 1 m/S 759 mmHg 69%
    05:00 +9°C° 0 mm 1 m/S 760 mmHg 69%
    06:00 +10°C° 0 mm 2 m/S 760 mmHg 62%
    07:00 +13°C° 0 mm 2 m/S 760 mmHg 56%
    08:00 +15°C° 0 mm 2 m/S 761 mmHg 50%
    09:00 +17°C° 0 mm 2 m/S 761 mmHg 47%
    10:00 +18°C° 0 mm 3 m/S 761 mmHg 43%
    11:00 +19°C° 0 mm 3 m/S 761 mmHg 40%
    12:00 +20°C° 0 mm 3 m/S 761 mmHg 40%
    13:00 +20°C° 0 mm 3 m/S 760 mmHg 40%
    14:00 +21°C° 0 mm 3 m/S 760 mmHg 40%
    15:00 +20°C° 0 mm 3 m/S 760 mmHg 44%
    16:00 +20°C° 0 mm 3 m/S 760 mmHg 47%
    17:00 +20°C° 0 mm 3 m/S 760 mmHg 51%
    18:00 +18°C° 0 mm 2 m/S 760 mmHg 58%
    19:00 +16°C° 0 mm 2 m/S 760 mmHg 65%
    20:00 +13°C° 0 mm 2 m/S 761 mmHg 72%
    21:00 +13°C° 0 mm 2 m/S 761 mmHg 74%
    22:00 +12°C° 0 mm 2 m/S 761 mmHg 76%
    23:00 +10°C° 0 mm 2 m/S 761 mmHg 77%

    übermorgen, 22 Mai, Dienstag

    Zeit Temperatur Niederschläge Wind Luftdruck Luftfeuchtigkeit
    00:00 +10°C° 0 mm 2 m/S 761 mmHg 78%
    01:00 +9°C° 0 mm 2 m/S 761 mmHg 79%
    02:00 +9°C° 0 mm 2 m/S 761 mmHg 80%
    03:00 +9°C° 0 mm 2 m/S 761 mmHg 78%
    04:00 +10°C° 0 mm 2 m/S 761 mmHg 76%
    05:00 +10°C° 0 mm 2 m/S 761 mmHg 74%
    06:00 +12°C° 0 mm 3 m/S 761 mmHg 66%
    07:00 +15°C° 0 mm 4 m/S 761 mmHg 59%
    08:00 +18°C° 0 mm 4 m/S 761 mmHg 52%
    09:00 +19°C° 0 mm 5 m/S 761 mmHg 49%
    10:00 +20°C° 0 mm 5 m/S 760 mmHg 46%
    11:00 +21°C° 0 mm 5 m/S 760 mmHg 44%
    12:00 +21°C° 0 mm 5 m/S 760 mmHg 44%
    13:00 +22°C° 0 mm 5 m/S 759 mmHg 45%
    14:00 +22°C° 0 mm 5 m/S 759 mmHg 45%
    15:00 +22°C° 0 mm 4 m/S 758 mmHg 49%
    16:00 +22°C° 0 mm 4 m/S 758 mmHg 53%
    17:00 +22°C° 0 mm 3 m/S 758 mmHg 57%
    18:00 +20°C° 0 mm 3 m/S 757 mmHg 64%
    19:00 +19°C° 0 mm 3 m/S 757 mmHg 71%
    20:00 +17°C° 0 mm 2 m/S 757 mmHg 78%
    21:00 +17°C° 0 mm 2 m/S 757 mmHg 82%
    22:00 +16°C° 0 mm 2 m/S 757 mmHg 87%
    23:00 +15°C° 0 mm 2 m/S 757 mmHg 92%

    23 Mai, Mittwoch

    Zeit Temperatur Niederschläge Wind Luftdruck Luftfeuchtigkeit
    00:00 +15°C° 0 mm 2 m/S 757 mmHg 94%
    01:00 +14°C° 0 mm 2 m/S 756 mmHg 95%
    02:00 +14°C° 0 mm 2 m/S 756 mmHg 97%
    03:00 +14°C° 0 mm 2 m/S 756 mmHg 96%
    04:00 +14°C° 0 mm 2 m/S 756 mmHg 95%
    05:00 +14°C° 0 mm 2 m/S 756 mmHg 94%
    06:00 +16°C° 0 mm 2 m/S 756 mmHg 85%
    07:00 +18°C° 0 mm 2 m/S 756 mmHg 77%
    08:00 +19°C° 0 mm 2 m/S 756 mmHg 68%
    09:00 +20°C° 0 mm 2 m/S 756 mmHg 61%
    10:00 +23°C° 0 mm 2 m/S 756 mmHg 55%
    11:00 +24°C° 0 mm 2 m/S 756 mmHg 49%
    12:00 +24°C° 0 mm 2 m/S 756 mmHg 47%
    13:00 +25°C° 0 mm 2 m/S 755 mmHg 45%
    14:00 +25°C° 0 mm 2 m/S 755 mmHg 44%
    15:00 +25°C° 0 mm 2 m/S 755 mmHg 47%
    16:00 +24°C° 0 mm 2 m/S 755 mmHg 50%
    17:00 +24°C° 0 mm 1 m/S 754 mmHg 53%
    18:00 +22°C° 0 mm 1 m/S 754 mmHg 60%
    19:00 +20°C° 0 mm 1 m/S 754 mmHg 68%
    20:00 +18°C° 0 mm 1 m/S 754 mmHg 75%
    21:00 +16°C° 0,1 mm 1 m/S 754 mmHg 78%
    22:00 +15°C° 0,1 mm 1 m/S 754 mmHg 80%
    23:00 +14°C° 0,1 mm 0 m/S 754 mmHg 83%

    24 Mai, Donnerstag

    Zeit Temperatur Niederschläge Wind Luftdruck Luftfeuchtigkeit
    00:00 +14°C° 0,2 mm 1 m/S 754 mmHg 85%
    01:00 +14°C° 0,2 mm 1 m/S 754 mmHg 87%
    02:00 +13°C° 0,2 mm 1 m/S 754 mmHg 90%
    03:00 +14°C° 0,2 mm 1 m/S 754 mmHg 89%
    04:00 +14°C° 0,2 mm 1 m/S 754 mmHg 88%
    05:00 +15°C° 0,2 mm 1 m/S 754 mmHg 87%
    06:00 +18°C° 0,1 mm 1 m/S 754 mmHg 82%
    07:00 +19°C° 0,1 mm 1 m/S 754 mmHg 77%
    08:00 +20°C° 0,1 mm 2 m/S 754 mmHg 71%
    09:00 +20°C° 0,6 mm 2 m/S 754 mmHg 71%
    10:00 +20°C° 0,6 mm 3 m/S 754 mmHg 70%
    11:00 +21°C° 0,6 mm 3 m/S 755 mmHg 70%
    12:00 +20°C° 0,5 mm 4 m/S 755 mmHg 71%
    13:00 +19°C° 0,5 mm 5 m/S 755 mmHg 73%
    14:00 +19°C° 0,5 mm 6 m/S 755 mmHg 75%
    15:00 +17°C° 0 mm 6 m/S 756 mmHg 74%
    16:00 +15°C° 0 mm 6 m/S 756 mmHg 74%
    17:00 +14°C° 0 mm 6 m/S 756 mmHg 73%
    18:00 +14°C° 0 mm 5 m/S 757 mmHg 73%
    19:00 +13°C° 0 mm 5 m/S 758 mmHg 73%
    20:00 +12°C° 0 mm 4 m/S 758 mmHg 73%
    21:00 +11°C° 0 mm 4 m/S 759 mmHg 69%
    22:00 +11°C° 0 mm 4 m/S 759 mmHg 65%
    23:00 +10°C° 0 mm 4 m/S 760 mmHg 62%

    25 Mai, Freitag

    Zeit Temperatur Niederschläge Wind Luftdruck Luftfeuchtigkeit
    00:00 +10°C° 0 mm 4 m/S 760 mmHg 61%
    01:00 +8°C° 0 mm 4 m/S 761 mmHg 60%
    02:00 +7°C° 0 mm 4 m/S 761 mmHg 59%
    03:00 +7°C° 0 mm 4 m/S 762 mmHg 60%
    04:00 +7°C° 0 mm 5 m/S 762 mmHg 61%
    05:00 +7°C° 0 mm 5 m/S 763 mmHg 62%
    06:00 +8°C° 0 mm 5 m/S 763 mmHg 58%
    07:00 +9°C° 0 mm 5 m/S 763 mmHg 54%
    08:00 +10°C° 0 mm 5 m/S 764 mmHg 50%
    09:00 +12°C° 0 mm 5 m/S 764 mmHg 48%
    10:00 +13°C° 0 mm 5 m/S 764 mmHg 46%
    11:00 +14°C° 0 mm 5 m/S 764 mmHg 43%
    12:00 +15°C° 0 mm 5 m/S 764 mmHg 43%
    13:00 +15°C° 0 mm 5 m/S 764 mmHg 42%
    14:00 +17°C° 0 mm 4 m/S 764 mmHg 42%
    15:00 +15°C° 0 mm 4 m/S 764 mmHg 44%
    16:00 +15°C° 0 mm 4 m/S 764 mmHg 46%
    17:00 +15°C° 0 mm 4 m/S 764 mmHg 48%
    18:00 +13°C° 0 mm 3 m/S 764 mmHg 55%
    19:00 +11°C° 0 mm 3 m/S 764 mmHg 62%
    20:00 +9°C° 0 mm 2 m/S 764 mmHg 69%
    21:00 +8°C° 0 mm 2 m/S 765 mmHg 70%
    22:00 +7°C° 0 mm 2 m/S 765 mmHg 72%
    23:00 +7°C° 0 mm 2 m/S 765 mmHg 73%
    Mehr zeigen